SOLRAD 7A

Satellite information

Favourite Embed

Satellite Type and Status

PAYLOADIN ORBIT

Key statistics

Satellite SOLRAD 7A at a glance.

Uptime

22565

Days in orbit

Revolutions

≈ 14.0

Per day

Orbit

LEO

Low Earth Orbit

Inclination

69.9

Latest

Satellite identification and parameters

Extended collection of information and parameters for SOLRAD 7A.

Object identification

Identified? True

Debris? False

Object name: SOLRAD 7A

International designator: 1964-001D

Object number (NORAD): 730

Object ID (CCSDS): 730

Country: UNITED STATES OF AMERICA (US)

Current information (Y/N): Y

RCS size: MEDIUM

Orbital parameters

Period: 103.151 minutes

Inclination: 69.906 deg

SMA: 7285.781 km

Apoapsis: 918.734 km

Periapsis: 896.558 km

RAAN: 68.8654 deg

Eccentricy: 0.0015219

Argument of periapsis: 329.0653 deg

Mean anomaly: 141.9463 deg

Mean motion: 13.96010144 rev/day

Mean motion (dot): 0.00000065 rev/day2

B* drag term: 0.000086557 1/REarth

Two-line elements (TLE)

Creation date: Oct. 21, 2025, 11:56 p.m.

Reference frame: TEME

Reference center: EARTH

Epoch: Oct. 21, 2025, 6:54 p.m. UTC

TLE line 0: 0 SOLRAD 7A

TLE line 1: 1 730U 64001D 25294.78790461 .00000065 00000-0 86557-4 0 9991

TLE line 2: 2 730 69.9060 68.8654 0015219 329.0653 141.9463 13.96010144 27360

Live tracking on map

Real-time ground track for satellite SOLRAD 7A.

In-orbit conjunctions

A list of the most updated potential collisions computed for object SOLRAD 7A.

Target Orbit TCA Probability of collision Miss distance Type
FENGYUN 1C DEB SSO 2025-09-29 00:49:01 0.0001311087 134.0 (m) DEBRIS
MOS 1B (MOMO 1B) SSO 2025-03-26 18:00:24 0.0002730197 209.0 (m) PAYLOAD
CZ-4B DEB LEO 2024-12-20 09:15:37 0.0001316297 195.0 (m) DEBRIS
FENGYUN 1C DEB SSO 2024-11-03 16:18:25 0.0008667518 136.0 (m) DEBRIS

Associated space launch

Poppy was the follow-on ELINT system, which succeeded the Grab ELINT satellite system.

SOLRAD 7A was lifted into orbit during the mission ‘Thor SLV-2A Agena D | Poppy 5A, 5B & 5C’, on board a Thor SLV-2A Agena D space rocket.

The launch took place on Jan. 11, 1964, 8:07 p.m. from Space Launch Complex 1E.

For more information about the launch, click the button.

Launch to space Thor SLV-2A Agena D | Poppy 5A, 5B & 5C
Thor SLV-2A Agena D | Poppy 5A, 5B & 5C

Agency: N/A

Status: Launch Successful

Launch date: Jan. 11, 1964, 8:07 p.m. UTC

Rocket: Thor SLV-2A Agena D

Launch pad: Space Launch Complex 1E

Location: Vandenberg SFB, CA, USA

...

Latest news about this satellite

There are no fresh news available about this satellite. Check back as we update our databases every day.


Newsletter sign-up

Weekly statistics, charts and insights to help you stay on top of the space industry.